Location: ??????? ?????????
(53.0509°N, 53.9778°E)
Time: 22:24:39
(UTC+00:00)

Daily predictions for brighter satellites

Satellite Brightness Start Highest point End
(mag) Time Altitude Azimuth Time Altitude Azimuth Time Altitude Azimuth
Cosmos 968 Rocket 3.6 13:52:08 10° NNW 13:57:27 86° ENE 14:02:44 10° SSE
Cosmos 1271 Rocket 2.9 13:56:03 10° N 13:59:57 55° ENE 14:03:52 10° SSE
Unknown 3.2 13:56:49 10° W 14:00:21 88° S 14:03:53 10° E
Meteor 2-12 Rocket 4.5 13:54:12 10° N 14:00:23 70° ENE 14:06:32 10° SSE
Cosmos 1626 2.4 13:56:47 10° NNW 14:00:31 74° W 14:04:13 10° S
Cosmos 2227 Rocket 4.3 13:57:51 10° WNW 14:01:52 19° NNW 14:05:55 10° NNE
Unknown 4.4 13:58:24 10° SW 14:02:10 36° SSE 14:05:57 10° E
SL-4 R/B 3.6 13:59:50 10° W 14:03:23 31° SSW 14:06:41 10° SSE
Unknown 3.1 14:01:51 10° W 14:05:16 89° NNW 14:08:42 10° E
CZ-2D R/B 4.4 14:02:26 10° ESE 14:05:36 24° ENE 14:08:46 10° N
Cosmos 1302 Rocket 4.1 14:01:10 10° SSW 14:06:24 89° WNW 14:11:42 10° NNE
Unknown 4.5 14:03:17 10° SW 14:07:05 36° SSE 14:10:55 10° E
Cosmos 2082 Rocket 3.2 14:02:19 10° NNW 14:07:16 29° NE 14:12:10 10° E
Cosmos 2297 Rocket 4.4 14:04:00 10° WNW 14:07:49 18° NNW 14:11:38 10° NNE
COSMOS 2406 3.4 14:02:56 10° NNW 14:08:40 57° NE 14:14:20 10° SE
Unknown 4.4 14:04:57 10° SW 14:08:46 37° SSE 14:12:36 10° E
Ariane Rocket 3.8 14:05:31 10° ESE 14:09:56 31° ENE 14:14:23 10° N
Unknown 4.4 14:06:35 10° SW 14:10:26 38° SSE 14:14:17 10° E
Cosmos 1726 3.3 14:08:08 10° SE 14:10:56 21° E 14:13:44 10° NE
Unknown 4.1 14:07:15 10° SW 14:11:08 45° SSE 14:14:59 10° E
Unknown 4.4 14:08:11 10° SW 14:12:02 38° SSE 14:15:49 10° E
Cosmos 2285 Rocket 4.3 14:06:22 10° NNW 14:12:50 80° WSW 14:19:15 10° SSE
Unknown 4.3 14:09:50 10° SW 14:13:42 39° SSE 14:17:26 11° E
Cosmos 1606 Rocket 3.7 14:10:19 10° S 14:14:33 50° E 14:18:48 10° NNE
Cosmos 1503 Rocket 4.3 14:11:21 10° NNW 14:16:31 72° WSW 14:21:39 10° SSE
Falcon 9 debris 3.1 14:13:31 10° W 14:16:59 88° N 14:20:09 12° E
Unknown 4.3 14:13:10 10° SW 14:17:03 40° SSE 14:20:41 12° E
H-2A R/B 3.9 14:13:25 10° S 14:17:12 49° W 14:21:03 10° NNW
Cosmos 1992 Rocket 4.2 14:12:23 10° S 14:17:25 50° ESE 14:22:28 10° NE
Cosmos 724 4.4 14:12:05 10° SSW 14:18:10 68° SE 14:24:09 10° NE
Cosmos 1703 3.8 14:14:34 10° N 14:18:16 37° ENE 14:21:56 10° SE
Cosmos 1242 Rocket 2.8 14:15:01 10° N 14:18:36 46° ENE 14:22:09 10° SSE
Starlink (trailer) 4.3 14:14:48 10° SW 14:18:43 41° SSE 14:22:17 12° E
Cosmos 1758 Rocket 3.9 14:14:31 10° NNW 14:18:58 75° W 14:23:25 10° S
CSL-04 Debris 4.2 14:14:03 10° SSE 14:19:26 64° ENE 14:24:53 10° NNW
Unknown 4.2 14:16:26 10° SW 14:20:21 42° SSE 14:23:51 12° E
Lacrosse 5 2.1 14:16:42 10° WNW 14:21:45 61° NNE 14:26:20 12° E
Unknown 4.2 14:18:02 10° SW 14:21:57 43° SSE 14:25:25 13° E
Cosmos 371 Rocket 4.3 14:17:42 10° SW 14:22:22 48° WNW 14:27:04 10° NNE
Unknown 3.2 14:20:08 10° W 14:23:40 88° N 14:26:37 14° E
Cosmos 304 Rocket 3.8 14:18:56 10° SSW 14:23:46 89° WNW 14:28:36 10° NNE
Cosmos 1953 2.3 14:20:15 10° S 14:24:18 72° E 14:28:23 10° NNE
Cosmos 1777 Rocket 4.3 14:19:19 10° NNW 14:24:24 48° ENE 14:29:26 10° SE
Cosmos 1607 4.4 14:18:23 10° WSW 14:24:27 60° NW 14:30:35 10° NE
FengYun 1-2 T 4.3 14:20:13 10° SSE 14:25:53 85° ENE 14:31:32 10° NNW
BREEZE M DEB (TANK) 3.0 14:24:55 10° WSW 14:26:56 31° S 14:30:29 10° SE
Unknown 3.6 14:24:51 10° W 14:27:21 38° SSW 14:29:53 10° SE
Unknown 4.1 14:24:30 10° SW 14:28:29 46° SSE 14:31:42 15° E
Unknown 4.1 14:24:39 10° SW 14:28:38 46° SSE 14:31:51 15° E
Meteor 2-10 4.4 14:24:12 10° SSE 14:28:48 36° E 14:33:23 10° NNE
Unknown 4.1 14:25:23 10° SW 14:29:21 46° SSE 14:32:32 15° E
Cosmos 1758 3.9 14:26:54 10° SSW 14:30:50 61° WNW 14:34:47 10° N
Unknown 4.0 14:29:21 10° SW 14:33:20 48° SSE 14:36:23 16° E
Unknown 4.0 14:29:35 10° SW 14:33:35 48° SSE 14:36:38 16° E
Unknown 3.3 14:30:04 10° WSW 14:33:49 84° S 14:36:37 17° E
Cosmos 1844 Rocket 2.7 14:28:25 10° SSW 14:34:00 66° ESE 14:39:37 10° NE
SKYMED 2 3.6 14:29:58 10° NNE 14:34:19 63° ESE 14:38:37 10° S
Unknown 4.0 14:31:19 10° SW 14:35:20 51° SSE 14:38:20 17° E
Cosmos 1461 3.3 14:32:11 10° NW 14:36:03 42° NE 14:38:58 16° ESE
COBE Rocket 4.0 14:31:09 10° NNE 14:36:22 82° ESE 14:41:30 10° S
Unknown 3.9 14:34:36 10° SW 14:38:38 52° SSE 14:41:31 18° E
Cosmos 2084 Rocket 4.4 14:34:50 10° NW 14:38:57 35° NNE 14:41:46 17° E
H-2A R/B 3.3 14:36:07 15° E 14:39:02 23° NE 14:43:10 10° N
Unknown 3.9 14:35:06 10° SW 14:39:08 51° SSE 14:41:58 18° E
Meteor 1-16 Rocket 4.2 14:33:58 10° S 14:39:24 57° E 14:44:42 10° NNE
Unknown 3.9 14:36:11 10° SW 14:40:14 52° SSE 14:43:02 19° E
Unknown 3.4 14:37:14 10° WSW 14:41:04 79° SSE 14:43:41 19° E
YAOGAN 1 2.5 14:38:25 10° SSE 14:42:45 90° E 14:47:08 10° NNW
Unknown 3.4 14:39:24 10° WSW 14:43:17 76° SSE 14:45:53 20° E
Unknown 3.9 14:39:22 10° SW 14:43:25 53° SSE 14:46:05 20° E
CZ-4C R/B 4.4 14:38:36 10° NW 14:45:07 38° WSW 14:52:24 10° S
Cosmos 1076 Rocket 4.5 14:42:42 10° N 14:46:29 27° ENE 14:48:38 19° ESE
Unknown 3.8 14:42:46 10° SW 14:46:50 55° SSE 14:49:23 21° E
Unknown 3.8 14:44:26 10° SW 14:48:30 56° SSE 14:50:59 22° E
Unknown 3.8 14:46:06 10° SW 14:50:09 57° SSE 14:52:36 22° E
YAOGAN 6 3.2 14:46:50 10° S 14:50:28 60° W 14:54:05 10° NNW
HJ-1C 3.9 14:48:34 16° SE 14:50:56 38° ENE 14:54:06 10° N
Lacrosse 5 rocket 3.4 14:48:38 10° W 14:51:38 23° SW 14:54:43 10° S
Unknown 3.8 14:47:44 10° WSW 14:51:49 58° SSE 14:54:12 23° E
Cosmos 1939 Rocket 2.9 14:47:54 10° SSE 14:51:49 60° ENE 14:55:50 10° N
Cosmos 2278 Rocket 3.0 14:47:55 10° SSE 14:52:37 28° ESE 14:57:21 10° NE
Unknown 3.7 14:51:02 10° WSW 14:55:07 60° SSE 14:57:22 25° E
Cosmos 1844 3.7 14:50:39 10° SSW 14:56:22 76° ESE 15:02:10 10° NE
Cosmos 1726 Rocket 3.6 14:52:04 10° SSW 14:56:28 81° W 15:00:52 10° N
Unknown 3.7 14:52:44 10° WSW 14:56:50 61° SSE 14:59:02 26° E
Unknown 3.7 14:54:23 10° WSW 14:58:29 62° SSE 15:00:36 27° E
Cosmos 1908 3.4 14:54:45 10° SSE 14:58:30 46° E 15:02:16 10° NNE
Unknown 3.7 14:55:58 10° WSW 15:00:04 62° SSE 15:02:08 27° E
Unknown 3.7 14:56:28 10° WSW 15:00:34 63° SSE 15:02:38 28° E
ATLAS CENTAUR R/B 3.6 14:57:07 10° NW 15:00:37 20° N 15:03:39 11° NE
CZ-2C R/B 4.5 14:58:47 20° E 15:00:45 24° NE 15:05:17 10° N
ATLAS 5 CENTAUR R/B 1.8 14:58:07 10° SW 15:02:31 77° NW 15:07:13 12° NE
Cosmos 1605 Rocket 3.9 14:56:25 10° N 15:02:41 80° ENE 15:08:50 10° SSE
ADEOS Rocket 4.3 14:56:42 10° NNE 15:03:08 27° E 15:09:16 10° SE
Unknown 3.7 14:59:09 10° WSW 15:03:14 62° SSE 15:05:11 29° E
Cosmos 1328 4.1 14:59:33 10° NNW 15:03:33 70° W 15:07:28 10° S
Cosmos 1898 Rocket 4.5 15:01:17 10° NNW 15:05:52 29° NE 15:07:35 24° E
Envisat 4.5 15:01:31 10° SSW 15:06:16 39° W 15:11:04 10° NNW
Cosmos 2228 3.6 15:02:04 10° SSW 15:06:24 62° WNW 15:10:44 10° N
Unknown 3.7 15:02:29 10° WSW 15:06:36 64° SSE 15:08:24 31° E
Unknown 3.7 15:04:07 10° WSW 15:08:13 65° SSE 15:09:58 32° E
Cosmos 2058 Rocket 3.0 15:04:21 10° S 15:08:42 89° WSW 15:13:06 10° N
Unknown 3.6 15:06:00 10° WSW 15:10:07 68° SSE 15:11:49 33° E
Unknown 3.6 15:07:24 10° WSW 15:11:31 66° SSE 15:13:08 34° E
CZ-4 R/B 3.1 15:08:46 10° SSW 15:12:40 38° W 15:16:38 10° NNW
Unknown 3.6 15:09:05 10° WSW 15:13:12 67° SSE 15:14:46 36° E
Shenzhou-11 Module 4.5 15:13:06 10° S 15:13:36 11° S 15:13:36 11° S
Cosmos 1727 Rocket 4.1 15:08:15 10° SSE 15:14:08 49° E 15:20:03 10° NNE
DMSP B5D1-3 4.4 15:10:26 10° NNE 15:15:34 68° ESE 15:20:41 10° S
Unknown 3.6 15:12:24 10° WSW 15:16:32 69° SSE 15:17:58 38° E
Cosmos 1802 Rocket 4.5 15:10:58 10° N 15:17:01 40° ENE 15:20:07 25° ESE
Cosmos 921 Rocket 3.1 15:12:59 10° SSW 15:17:30 81° WNW 15:21:59 10° NNE
Unknown 3.6 15:14:05 10° WSW 15:18:13 70° SSE 15:19:35 40° E
Unknown 3.6 15:15:45 10° WSW 15:19:52 71° SSE 15:21:11 41° E
Cosmos 2263 Rocket 4.1 15:15:52 10° W 15:20:35 26° NW 15:25:16 10° NNE
Unknown 3.6 15:17:25 10° WSW 15:21:33 71° SSE 15:22:47 43° E
COSMO-SKYMED 1 3.6 15:18:11 10° N 15:22:23 49° WNW 15:26:35 10° SW
NOAA 11 4.4 15:18:01 10° S 15:23:28 73° WSW 15:28:56 10° NNW
Cosmos 2151 4.4 15:20:17 10° N 15:22:58 23° NE 15:22:58 23° NE
Cosmos 2173 Rocket 4.2 15:17:49 10° N 15:23:57 50° ENE 15:27:38 23° SE
USA 186 3.9 15:26:31 13° N 15:26:31 13° N 15:26:52 10° N
ASTEX 1 4.4 15:19:46 10° N 15:24:32 49° WNW 15:29:19 10° SSW
Unknown 3.5 15:20:43 10° WSW 15:24:51 73° SSE 15:25:58 46° E
Cosmos 2084 3.5 15:20:53 10° SW 15:25:25 82° NW 15:27:57 25° NE
Unknown 3.5 15:22:17 10° WSW 15:26:25 75° SSE 15:27:30 48° E
Unknown 3.5 15:22:39 10° WSW 15:26:48 77° SSE 15:27:52 48° E
SJ-11-01 4.2 15:24:38 24° SSE 15:27:25 65° ENE 15:32:06 10° N
USA 116 4.0 15:25:15 10° N 15:28:18 51° WNW 15:31:26 10° SSW
Unknown 3.5 15:24:15 10° WSW 15:28:24 77° SSE 15:29:25 50° E
Resurs 01 Rocket 3.0 15:30:15 24° NE 15:30:15 24° NE 15:33:09 10° N
FREGAT/IRIS 3.6 15:30:53 35° N 15:30:53 35° N 15:32:40 10° N
Cosmos 1356 3.9 15:26:28 10° SSW 15:29:52 60° WNW 15:33:18 10° N
Unknown 3.5 15:27:18 10° WSW 15:31:28 76° SSE 15:32:19 54° E
Unknown 4.1 15:29:28 10° W 15:32:19 33° SSW 15:32:38 32° SSW
Cosmos 1833 Rocket 2.7 15:26:45 10° NNW 15:32:24 81° WSW 15:36:24 20° SSE
FALCON 9 DEB 3.1 15:29:35 10° W 15:33:03 71° SSW 15:33:18 67° SSE
SJ 16-02 2.6 15:30:07 10° N 15:33:28 26° NE 15:33:28 26° NE
Unknown 3.5 15:30:37 10° WSW 15:34:46 78° SSE 15:35:30 58° E
USA 238 DEB 4.2 15:29:42 10° S 15:35:35 34° ESE 15:36:05 34° ESE
ARGOS 3.4 15:34:03 37° ESE 15:35:42 49° ENE 15:40:56 10° N
USA 238 4.2 15:29:49 10° S 15:35:43 34° ESE 15:36:07 33° ESE
Unknown 3.5 15:32:21 10° WSW 15:36:31 78° SSE 15:37:11 60° E
Unknown 3.1 15:34:05 10° W 15:37:36 74° SSW 15:37:42 73° S
Okean 3 Rocket 4.2 15:33:26 10° N 15:37:24 39° ENE 15:37:24 39° ENE
Cosmos 1892 4.5 15:34:38 10° N 15:36:14 20° NNE 15:36:14 20° NNE
Unknown 3.5 15:33:57 10° WSW 15:38:06 79° SSE 15:38:42 63° E
Unknown 3.5 15:35:40 10° WSW 15:39:49 80° SSE 15:40:21 65° E
Gbstr 26 Del rocket 4.3 15:33:50 10° W 15:39:55 62° SSW 15:43:23 31° SE
Cosmos 1725 Rocket 4.4 15:35:17 10° N 15:41:09 40° ENE 15:42:07 37° E
Unknown 3.4 15:37:13 10° WSW 15:41:20 83° S 15:41:47 69° E
Unknown 3.4 15:38:44 10° W 15:41:58 60° SSW 15:41:58 60° SSW
Cosmos 2058 2.9 15:38:00 10° N 15:42:12 62° ENE 15:42:20 61° E
Cosmos 2100 Rocket 3.9 15:36:47 10° N 15:43:01 70° ENE 15:46:53 24° SSE
Cosmos 967 Rocket 4.5 15:38:16 10° NW 15:44:46 87° SW 15:47:57 33° SE
Cosmos 1726 3.6 15:42:32 10° SW 15:45:58 37° WNW 15:49:24 10° N
Unknown 3.4 15:42:15 10° WSW 15:46:25 82° S 15:46:42 75° ESE
Unknown 3.4 15:43:57 10° WSW 15:48:07 83° S 15:48:19 78° ESE
Ariane Rocket 3.8 15:43:45 10° S 15:48:43 52° W 15:53:43 10° NNW
Unknown 3.4 15:45:37 10° WSW 15:49:47 83° S 15:49:56 81° SE
Unknown 3.4 15:46:07 10° W 15:50:11 88° S 15:50:16 86° ESE
Resurs 1-3 4.3 15:52:09 39° NE 15:52:09 39° NE 15:55:30 10° N
Unknown 3.4 15:47:14 10° WSW 15:51:23 84° S 15:51:28 83° SE
SL-08 RB Rocket 4.2 15:52:28 42° NE 15:52:28 42° NE 15:56:10 10° N
Cosmos 2082 Rocket 2.2 15:46:16 10° NNW 15:52:01 82° WSW 15:54:33 35° SSE
Unknown 3.5 15:48:55 10° WSW 15:53:05 84° S 15:53:06 84° SSE
Falcon 9 debris 3.9 15:50:33 10° W 15:53:25 49° WSW 15:53:25 49° WSW
Unknown 3.5 15:52:17 10° W 15:56:20 83° SW 15:56:20 83° SW
Starlink (trailer) 3.6 15:53:57 10° W 15:57:56 81° SW 15:57:56 81° SW
SPOT 3 Rocket 3.4 15:57:53 43° SSE 15:59:39 87° ENE 16:04:54 10° NNW
Unknown 3.6 15:55:36 10° W 15:59:30 79° WSW 15:59:30 79° WSW
Unknown 4.1 15:57:23 10° W 16:00:04 45° WSW 16:00:04 45° WSW
Unknown 3.6 15:57:12 10° W 16:01:04 76° WSW 16:01:04 76° WSW
SJ-6B 3.0 16:03:02 65° NW 16:03:02 65° NW 16:06:20 10° NNW
NOSS 3-3 (A) 4.5 15:56:46 10° NW 16:04:05 79° SW 16:07:45 36° SSE
NOSS 3-3 (C) 4.5 15:56:52 10° NW 16:04:11 79° SW 16:07:49 36° SSE
Lacrosse 5 2.0 15:59:49 10° WNW 16:04:50 63° SW 16:05:32 56° S
Cosmos 1937 Rocket 3.7 16:01:05 10° NNW 16:05:51 52° NE 16:05:51 52° NE
Cosmos 292 Rocket 4.4 16:01:57 10° SW 16:06:36 53° WNW 16:11:17 10° NNE
Cosmos 2016 Rocket 3.9 16:01:13 10° N 16:07:28 69° ENE 16:08:54 53° SE
Unknown 3.9 16:03:46 10° W 16:07:21 66° W 16:07:21 66° W
Unknown 3.9 16:03:54 10° W 16:07:30 66° W 16:07:30 66° W
Unknown 3.9 16:04:37 10° W 16:08:11 64° W 16:08:11 64° W
Cosmos 1812 Rocket 3.8 16:06:20 10° SSW 16:10:44 71° WNW 16:15:13 10° N
Unknown 4.3 16:08:08 10° W 16:10:50 45° W 16:10:50 45° W
SL-08 R/B 4.3 16:06:10 10° N 16:12:18 64° ENE 16:12:50 61° ESE
Unknown 4.1 16:08:38 10° W 16:12:02 59° W 16:12:02 59° W
Unknown 4.1 16:08:53 10° W 16:12:17 58° W 16:12:17 58° W
Unknown 4.2 16:10:39 10° W 16:13:59 56° W 16:13:59 56° W
Cosmos 1461 4.0 16:11:22 10° NW 16:15:08 37° WSW 16:15:23 36° SW
Cosmos 990 Rocket 3.9 16:10:05 10° NNW 16:15:12 74° NE 16:15:12 74° NE
H-2A R/B 2.1 16:16:45 56° S 16:17:53 81° WSW 16:23:21 10° NNW
Cosmos 2061 Rocket 3.8 16:11:46 10° N 16:18:07 84° E 16:19:37 55° SSE
Unknown 4.3 16:13:58 10° W 16:17:10 52° W 16:17:10 52° W
Cosmos 1844 Rocket 4.3 16:13:16 10° WSW 16:18:20 33° NW 16:23:25 10° NNE
Unknown 4.3 16:14:27 10° W 16:17:37 51° W 16:17:37 51° W
Cosmos 2084 Rocket 3.8 16:14:22 10° NW 16:18:18 64° W 16:18:18 64° W
Unknown 4.4 16:15:33 10° W 16:18:41 50° W 16:18:41 50° W
In-Cosmos 22 Rocket 4.1 16:15:13 10° NNW 16:20:35 77° W 16:21:41 57° S
Spot 2 Rocket 4.5 16:23:41 35° NNE 16:23:41 35° NNE 16:26:59 10° N
BREEZE-M DEB (TANK) 4.4 16:24:02 10° SW 16:27:50 25° SSW 16:27:50 25° SSW
Cosmos 2278 Rocket 2.5 16:30:39 10° SW 16:36:19 66° NW 16:40:44 17° NNE
MetOp-A 4.2 16:39:52 74° NNW 16:39:52 74° NNW 16:44:46 10° NNW
CZ-2C R/B 3.3 16:39:52 81° SW 16:40:02 82° WSW 16:45:53 10° NNW
ATLAS CENTAUR R/B 3.4 16:36:56 10° NW 16:39:50 25° N 16:39:50 25° N
ATLAS 5 CENTAUR R/B 3.4 16:43:45 10° WNW 16:47:56 30° NNW 16:48:45 29° N
Cosmos 1898 Rocket 3.9 16:43:09 10° NNW 16:47:53 59° W 16:47:53 59° W
ADEOS Rocket 3.5 16:41:38 10° NNE 16:49:29 84° WNW 16:56:55 10° SSW
Resurs 01 Rocket 3.5 17:07:50 28° NW 17:07:50 28° NW 17:10:09 10° NNW
SJ 16-02 3.4 17:08:28 10° NNW 17:10:27 25° NW 17:10:27 25° NW
Terra 4.3 17:16:43 15° N 17:16:43 15° N 17:17:34 10° N
USA 238 DEB 4.4 17:19:16 10° SW 17:23:37 43° WSW 17:23:37 43° WSW
USA 238 4.5 17:19:23 10° SW 17:23:39 42° WSW 17:23:39 42° WSW
Cosmos 2227 Rocket 4.3 17:30:50 10° NNW 17:33:42 18° NNE 17:33:42 18° NNE
Cosmos 2082 Rocket 4.4 17:31:42 10° WNW 17:35:15 17° W 17:36:25 16° WSW
Cosmos 2297 Rocket 4.3 17:36:33 10° NNW 17:39:15 19° N 17:39:15 19° N
Lacrosse 5 4.5 17:43:44 10° W 17:44:44 13° W 17:44:44 13° W
Cosmos 2278 Rocket 4.4 18:17:12 10° W 18:21:30 21° NNW 18:22:41 20° NNW
CENTAUR R/B 4.3 21:02:49 33° NNE 21:02:49 33° NNE 21:08:14 10° ENE
CZ-2D R/B 4.3 22:08:59 10° NNE 22:10:39 21° NNE 22:10:39 21° NNE
ADEOS II 4.2 22:10:43 10° NE 22:13:11 22° ENE 22:13:11 22° ENE
SL-16 R/B 3.9 22:25:09 29° ENE 22:25:09 29° ENE 22:28:05 10° NE
NOSS 3-1 (C) 4.4 22:37:05 45° NNE 22:37:05 45° NNE 22:41:53 10° NE
ATLAS 3B R/B 3.7 22:38:34 36° N 22:39:45 39° NNE 22:46:01 10° E
Lacrosse 4 Rocket 4.4 22:48:18 14° NE 22:48:18 14° NE 22:48:51 10° NE
CENTAUR R/B 3.7 22:50:01 32° NNW 22:53:15 49° NNE 23:01:22 10° E
Cosmos 2322 Rocket 3.2 22:56:25 42° NE 22:56:25 42° NE 23:00:12 10° NE
USA 238 DEB 3.9 23:02:07 69° N 23:02:37 72° NE 23:09:59 10° ESE
USA 238 3.9 23:02:12 69° N 23:02:44 72° NE 23:10:04 10° ESE
Cosmos 2360 Rocket 3.2 23:06:35 41° E 23:06:35 41° E 23:11:20 10° NE
COSMOS 2455 4.3 23:05:24 28° ESE 23:06:08 29° ESE 23:11:14 10° NE
Cosmos 1980 Rocket 3.5 23:13:32 32° N 23:13:32 32° N 23:17:06 10° NNE
Resurs 1-4 Rocket 3.7 23:18:05 10° N 23:20:31 25° NNW 23:20:31 25° NNW
NOSS 3-2 (A) 3.9 23:26:07 44° NW 23:28:53 82° NE 23:37:07 10° SE
USA 267 3.4 23:32:38 10° ENE 23:39:07 62° SE 23:40:00 57° S
Cosmos 2278 Rocket 3.1 23:34:35 10° NNW 23:40:05 46° NE 23:45:33 10° ESE
Meteor 2-21 4.5 23:42:12 61° SSE 23:43:19 79° E 23:49:32 10° NNE
Cosmos 2333 Rocket 3.7 23:42:22 19° SSE 23:45:27 32° ESE 23:50:26 10° NE
NOSS 3-2 (C) 4.0 23:46:52 27° NW 23:51:21 80° NE 23:59:35 10° SE
CZ-2D R/B 3.8 23:49:40 10° N 23:51:59 21° NNW 23:51:59 21° NNW
